星链-33895 (STARLINK-33895)

导读

STARLINK-33895是美国于2025年5月13日发射的星链系列卫星,隶属于SpaceX公司打造的星链星座项目。星链项目旨在构建全球覆盖的卫星互联网星座,为全球偏远地区、海洋及通信基础设施薄弱区域提供低成本、高速率的宽带互联网接入服务,该卫星入轨后将扩充星链星座的服务覆盖能力与网络容量。

基本信息
目录编号:
63934
目录名称:
STARLINK-33895
国际标识:
2025-098J
轨道中心:
EARTH
卫星名称:
星链-33895
卫星全名:
星链-33895 (STARLINK-33895)
卫星状态:
在轨 (已飞行397 天)
发射日期:
2025-05-13 UTC
国别 :
美国 (US)
星等 :
--
轨道信息
数据来源 国际轨道数据 AOE轨道数据
星历时间 2026-06-14T05:15:33+0800
6小时前
查看轨道信息
2026-06-14T06:00:00+0800
6小时前
查看轨道信息
半长轴 6950.191km 6950.202km
偏心率 0.0002869 0.000288
轨道倾角 70.002° 70.001°
近地点辐角 268.831° 269.495°
升交点赤经 31.835° 31.756°
平近点角 91.252° 257.035°
近地点 570.059km 570.063km
远地点 574.049km 574.067km
周期 96.107分钟 96.107分钟
每日圈数 14.983309 14.983273
详细信息
固有亮度:
5
最大亮度:
2.5
卫星平台:
Starlink V1.0
覆盖范围:
全球
运营商:
太空探索技术公司
运营商所在国:
美国
制造商(研发单位):
太空探索技术公司
制造商所在国:
美国
使用方式:
暂无
卫星简介
Starlink 计划是 SpaceX 推出的全球卫星互联网项目,通过发射低轨道卫星,为全球尤其是偏远地区提供高速、低延迟的互联网服务。自 2019 年起,Starlink 已部署数千颗卫星,旨在缩小全球数字鸿沟,推动互联网普及。该项目还为军事、航空等行业提供通信支持,带来广泛经济效益。
2D轨道图
3D轨道图
轨道高度分析图
轨道倾角分析图
轨道综合分析图
查看轨道综合分析图